Location: Waco, TX
(31.5480°N, 97.1670°W)
Time: 02:11:16
(UTC-05:00)

ISS - All Passes

Search period start: 12 August 2020 00:00
Search period end: 22 August 2020 00:00
Orbit: 418 x 420 km, 51.6° (Epoch: 12 August)

Date Brightness Start Highest point End Pass type
(mag) Time Alt. Az. Time Alt. Az. Time Alt. Az.
12 Aug - 10:45:57 10° SW 10:49:16 58° NW 10:52:34 10° NE daylight
12 Aug - 17:19:52 10° N 17:22:00 16° NE 17:24:08 10° ENE daylight
12 Aug - 18:55:43 10° WNW 18:58:57 43° SW 19:02:09 10° SSE daylight
13 Aug - 09:58:21 10° SW 10:01:41 69° SE 10:05:01 10° NE daylight
13 Aug - 11:37:25 10° NW 11:38:48 12° NNW 11:40:12 10° N daylight
13 Aug - 16:33:47 10° NNE 16:34:11 10° NNE 16:34:35 10° NE daylight
13 Aug - 18:08:03 10° NW 18:11:24 89° NE 18:14:46 10° SE daylight
14 Aug - 09:11:07 10° SSW 09:14:10 33° SE 09:17:13 10° ENE daylight
14 Aug - 10:48:33 10° W 10:51:00 19° NW 10:53:28 10° NNE daylight
14 Aug - 17:20:32 10° NNW 17:23:47 44° NE 17:27:01 10° ESE daylight
14 Aug - 18:58:58 10° WSW 19:00:15 12° SW 19:01:32 10° SSW daylight
15 Aug - 08:24:24 10° S 08:26:41 17° SE 08:28:58 10° E daylight
15 Aug - 10:00:15 10° WSW 10:03:16 31° NW 10:06:19 10° NNE daylight
15 Aug - 16:33:15 10° NNW 16:36:06 25° NE 16:38:56 10° E daylight
15 Aug - 18:10:06 10° WNW 18:12:47 22° SW 18:15:28 10° S daylight
16 Aug - 09:12:18 10° SW 09:15:36 58° NW 09:18:55 10° NE daylight
16 Aug - 15:46:12 10° N 15:48:19 16° NE 15:50:27 10° ENE daylight
16 Aug - 17:22:04 10° WNW 17:25:17 44° SW 17:28:29 10° SSE daylight
17 Aug - 08:24:39 10° SW 08:27:59 68° SE 08:31:19 10° NE daylight
17 Aug - 10:03:41 10° WNW 10:05:05 12° NNW 10:06:30 10° N daylight
17 Aug - 15:00:10 10° NNE 15:00:28 10° NNE 15:00:46 10° NE daylight
17 Aug - 16:34:19 10° NW 16:37:41 88° NE 16:41:02 10° SE daylight
18 Aug - 07:37:23 10° SSW 07:40:26 32° SE 07:43:28 10° ENE daylight
18 Aug - 09:14:47 10° W 09:17:15 19° NW 09:19:44 10° NNE daylight
18 Aug - 15:46:48 10° NNW 15:50:02 44° NE 15:53:15 10° ESE daylight
18 Aug - 17:25:10 10° WSW 17:26:29 12° SW 17:27:48 10° SSW daylight
19 Aug - 06:50:38 10° S 06:52:54 17° SE 06:55:10 10° E daylight
19 Aug - 08:26:28 10° WSW 08:29:29 31° NW 08:32:32 10° NNE daylight
19 Aug - 14:59:27 10° NNW 15:02:18 25° NE 15:05:08 10° E daylight
19 Aug - 16:36:18 10° WNW 16:38:59 22° SW 16:41:40 10° S daylight
20 Aug - 07:38:28 10° SW 07:41:46 59° NW 07:45:06 10° NE daylight
20 Aug - 14:12:22 10° N 14:14:29 15° NE 14:16:35 10° ENE daylight
20 Aug - 15:48:12 10° WNW 15:51:26 44° SW 15:54:38 10° SSE daylight
21 Aug - 06:50:48 10° SW 06:54:07 67° SE 06:57:27 10° NE daylight
21 Aug - 08:29:46 10° WNW 08:31:12 12° NNW 08:32:39 10° N daylight
21 Aug - 15:00:26 10° NW 15:03:48 87° NE 15:07:09 10° SE daylight
